AirNav   Everest Fuels
 
 869 users online  

NM05 Cielo Dorado Estates Airport
Santa Teresa, New Mexico, USA

GOING TO SANTA TERESA?


FAA INFORMATION EFFECTIVE 10 SEPTEMBER 2020

Location

FAA Identifier: NM05
Lat/Long: 31-54-33.3720N 106-38-27.9720W
31-54.556200N 106-38.466200W
31.9092700,-106.6411033
(estimated)
Elevation: 3750 ft. / 1143 m (estimated)
Variation: 11E (1985)
From city: 4 miles N of SANTA TERESA, NM
Time zone: UTC -6 (UTC -7 during Standard Time)
Zip code: 79835

Airport Operations

Airport use: Private use. Permission required prior to landing
Activation date: 08/2015
Control tower: no
ARTCC: ALBUQUERQUE CENTER
FSS: ALBUQUERQUE FLIGHT SERVICE STATION
Attendance: UNATNDD
Wind indicator: yes
Segmented circle: no
Lights: ACTVT MIRL RWY NE/SW - 122.9. ACTVT PAPI RWY SW - 122.9 (3 CLICKS)
Beacon: white-green (lighted land airport)
ACTVT ROTG BCN - 122.9.

Airport Communications

UNICOM: 122.725
WX AWOS-3PT at DNA (4 nm SW): 124.175 (575-589-2643)
WX ASOS at ELP (15 nm SE): PHONE 915-774-9497

Nearby radio navigation aids

VOR radial/distance  VOR name  Freq  Var
EWMr250/18.9NEWMAN VORTAC112.4012E
ELPr275/19.1EL PASO VORTAC115.2012E
CJSr315/19.7CIUDAD JUAREZ VOR/DME116.7011E

Airport Services

Runway Information

Runway NE/SW

Dimensions: 4000 x 50 ft. / 1219 x 15 m
Surface: asphalt
Runway edge lights: medium intensity
RUNWAY NE  RUNWAY SW
Traffic pattern: rightright
Visual slope indicator: 2-light PAPI on left

Airport Ownership and Management from official FAA records

Ownership: Privately-owned
Owner: CIELO DORADO HOMEOWNERS ASSOC.
17 CIELO DEL OESTE
ANTHONY, NM 88021
Phone 9157604533
Manager: CIELO DORADO HOMEOWNERS ASSOC.
PO BOX 1718
SUNLAND PARK, NM 88063
Phone (915) 630-7073

Airport Operational Statistics

Aircraft based on the field: 31
Single engine airplanes: 20
Multi engine airplanes: 8
Helicopters: 1
Ultralights: 2
    

Additional Remarks

FOR CD CTC ALBUQUERQUE ARTCC AT 505-856-4861.

Instrument Procedures

There are no published instrument procedures at NM05.

Some nearby airports with instrument procedures:

KDNA - Dona Ana County International Jetport Airport (4 nm SW)
KBIF - Biggs Army Airfield (Fort Bliss) (14 nm E)
KELP - El Paso International Airport (15 nm SE)
KLRU - Las Cruces International Airport (27 nm NW)
KDMN - Deming Municipal Airport (59 nm W)
 
Loc | Ops | Rwys | IFR | FBO | Links
Com | Nav | Svcs | Stats | Notes
Aerial photo
WARNING: Photo may not be current or correct
Aerial photo of NM05 (Cielo Dorado Estates Airport)
Photo by Stan & Jean Bush
Photo taken 24-Apr-2016
looking west.

Do you have a better or more recent aerial photo of Cielo Dorado Estates Airport that you would like to share? If so, please send us your photo.

 
Airport distance calculator
Flying to Cielo Dorado Estates Airport? Find the distance to fly.

From to NM05

Sunrise and sunset
Times for 21-Sep-2020
 Local
(UTC-6)
 Zulu
(UTC)
Morning civil twilight06:3112:31
Sunrise06:5612:56
Sunset19:0301:03
Evening civil twilight19:2701:27

Current date and time
Zulu (UTC)  22-Sep-2020 04:00:35
Local (UTC-6)  21-Sep-2020 22:00:35
 
METAR
KDNA 
4nm SW 
220355Z AUTO 26003KT 10SM 24/M06 A3014 RMK AO2
KBIF 
14nm E 
220258Z AUTO 00000KT 9SM CLR 26/00 A3010 RMK AO2 SLP134 T02560001 53011 $
KELP 
14nm SE 
220351Z 08008KT 9SM CLR 22/01 A3012 RMK AO2 SLP133 T02220011
TAF
KBIF 
14nm E 
212200Z 2122/2304 VRB06KT 9999 SKC QNH3002INS TX32/2222Z TN13/2214Z
KELP 
14nm SE 
211754Z 2118/2218 VRB03KT P6SM FEW080 FM220500 13005KT P6SM SKC FM220600 VRB04KT P6SM SKC
NOTAMs
Click for the latest NOTAMs
NOTAMs are issued by the DoD/FAA and will open in a separate window not controlled by AirNav.

 

 
 

Would you like to see your business listed on this page?

 If your business provides an interesting product or service to pilots, flight crews, aircraft, or users of the Cielo Dorado Estates Airport, you should consider listing it here.  To start the listing process, click on the button below
 
Add a business
 

Other Pages about Cielo Dorado Estates Airport

Update a link
 
Copyright © AirNav, LLC. All rights reserved. Privacy Policy  Contact